Time,TemperatureF,DewpointF,PressureIn,WindDirection,WindDirectionDegrees,WindSpeedMPH,WindSpeedGustMPH,Humidity,HourlyPrecipIn,Conditions,Clouds,dailyrainin,SoftwareType,DateUTC
2013-08-26 00:02:00,76.8,70.5,29.99,SE,133,0.0,-999.0,81,0.00,,,0.00,WeatherSnoop3.0,2013-08-26 05:02:00,
2013-08-26 00:07:00,76.7,70.4,29.99,SE,131,1.0,-999.0,81,0.00,,,0.00,WeatherSnoop3.0,2013-08-26 05:07:00,
2013-08-26 00:12:00,76.7,70.4,29.99,SE,145,1.0,-999.0,81,0.00,,,0.00,WeatherSnoop3.0,2013-08-26 05:12:00,
2013-08-26 00:17:00,76.6,70.3,29.99,SE,136,0.0,-999.0,81,0.00,,,0.00,WeatherSnoop3.0,2013-08-26 05:17:00,
2013-08-26 00:22:00,76.5,70.6,29.99,SE,129,2.0,-999.0,82,0.00,,,0.00,WeatherSnoop3.0,2013-08-26 05:22:00,
2013-08-26 00:27:00,76.5,70.6,29.99,SE,145,2.0,-999.0,82,0.00,,,0.00,WeatherSnoop3.0,2013-08-26 05:27:00,
2013-08-26 00:32:00,76.4,70.5,29.99,SSE,150,0.0,-999.0,82,0.00,,,0.00,WeatherSnoop3.0,2013-08-26 05:32:00,
2013-08-26 00:37:00,76.4,70.5,29.99,SE,138,1.0,-999.0,82,0.00,,,0.00,WeatherSnoop3.0,2013-08-26 05:37:00,
2013-08-26 00:42:00,76.2,70.3,29.99,SSE,153,1.0,-999.0,82,0.00,,,0.00,WeatherSnoop3.0,2013-08-26 05:42:00,
2013-08-26 00:47:00,76.2,70.6,29.99,SE,134,1.0,-999.0,83,0.00,,,0.00,WeatherSnoop3.0,2013-08-26 05:47:00,
2013-08-26 00:52:00,76.1,70.5,29.99,SSE,156,1.0,-999.0,83,0.00,,,0.00,WeatherSnoop3.0,2013-08-26 05:52:00,
2013-08-26 00:57:00,76.0,70.5,29.99,SE,133,2.0,-999.0,83,0.00,,,0.00,WeatherSnoop3.0,2013-08-26 05:57:00,
2013-08-26 01:02:00,75.9,70.4,29.99,SE,142,0.0,-999.0,83,0.00,,,0.00,WeatherSnoop3.0,2013-08-26 06:02:00,
2013-08-26 01:07:00,75.7,70.2,30.00,SE,139,0.0,-999.0,83,0.00,,,0.00,WeatherSnoop3.0,2013-08-26 06:07:00,
2013-08-26 01:12:00,75.6,70.4,30.00,SSE,165,0.0,-999.0,84,0.00,,,0.00,WeatherSnoop3.0,2013-08-26 06:12:00,
2013-08-26 01:17:00,75.4,70.2,30.00,SE,137,1.0,-999.0,84,0.00,,,0.00,WeatherSnoop3.0,2013-08-26 06:17:00,
2013-08-26 01:22:00,75.3,70.1,29.99,SE,126,0.0,-999.0,84,0.00,,,0.00,WeatherSnoop3.0,2013-08-26 06:22:00,
2013-08-26 01:27:00,75.3,70.1,29.99,SW,216,1.0,-999.0,84,0.00,,,0.00,WeatherSnoop3.0,2013-08-26 06:27:00,
2013-08-26 01:32:00,75.2,70.0,29.99,SSE,158,1.0,-999.0,84,0.00,,,0.00,WeatherSnoop3.0,2013-08-26 06:32:00,
2013-08-26 01:37:00,75.2,70.0,29.99,SSE,156,1.0,-999.0,84,0.00,,,0.00,WeatherSnoop3.0,2013-08-26 06:37:00,
2013-08-26 01:42:00,75.2,70.0,29.99,West,259,1.0,-999.0,84,0.00,,,0.00,WeatherSnoop3.0,2013-08-26 06:42:00,
2013-08-26 01:47:00,75.0,70.2,29.99,SSE,153,0.0,-999.0,85,0.00,,,0.00,WeatherSnoop3.0,2013-08-26 06:47:00,
2013-08-26 01:52:00,75.0,70.2,30.00,SE,145,0.0,-999.0,85,0.00,,,0.00,WeatherSnoop3.0,2013-08-26 06:52:00,
2013-08-26 01:57:00,74.8,70.0,29.99,SE,142,1.0,-999.0,85,0.00,,,0.00,WeatherSnoop3.0,2013-08-26 06:57:00,
2013-08-26 02:02:00,74.8,70.0,29.99,SE,129,3.0,-999.0,85,0.00,,,0.00,WeatherSnoop3.0,2013-08-26 07:02:00,
2013-08-26 02:07:00,74.8,70.0,29.99,ESE,120,1.0,-999.0,85,0.00,,,0.00,WeatherSnoop3.0,2013-08-26 07:07:00,
2013-08-26 02:12:00,74.8,70.0,29.99,SE,139,0.0,-999.0,85,0.00,,,0.00,WeatherSnoop3.0,2013-08-26 07:12:00,
2013-08-26 02:17:00,74.6,69.8,29.99,SSW,205,1.0,-999.0,85,0.00,,,0.00,WeatherSnoop3.0,2013-08-26 07:17:00,
2013-08-26 02:22:00,74.6,70.1,29.99,ESE,115,1.0,-999.0,86,0.00,,,0.00,WeatherSnoop3.0,2013-08-26 07:22:00,
2013-08-26 02:27:00,74.5,70.0,29.99,SE,142,1.0,-999.0,86,0.00,,,0.00,WeatherSnoop3.0,2013-08-26 07:27:00,
2013-08-26 02:32:00,74.4,69.9,29.99,SSE,155,0.0,-999.0,86,0.00,,,0.00,WeatherSnoop3.0,2013-08-26 07:32:00,
2013-08-26 02:37:00,74.4,69.9,29.99,SSE,160,2.0,-999.0,86,0.00,,,0.00,WeatherSnoop3.0,2013-08-26 07:37:00,
2013-08-26 02:42:00,74.4,69.9,29.99,SSE,156,1.0,-999.0,86,0.00,,,0.00,WeatherSnoop3.0,2013-08-26 07:42:00,
2013-08-26 02:47:00,74.4,69.9,29.99,SE,142,2.0,-999.0,86,0.00,,,0.00,WeatherSnoop3.0,2013-08-26 07:47:00,
2013-08-26 02:52:00,74.4,69.9,29.99,South,176,2.0,-999.0,86,0.00,,,0.00,WeatherSnoop3.0,2013-08-26 07:52:00,
2013-08-26 02:57:00,74.3,70.2,29.99,SSE,153,2.0,-999.0,87,0.00,,,0.00,WeatherSnoop3.0,2013-08-26 07:57:00,
2013-08-26 03:02:00,74.4,69.9,29.99,SE,131,2.0,-999.0,86,0.00,,,0.00,WeatherSnoop3.0,2013-08-26 08:02:00,
2013-08-26 03:07:00,74.5,70.0,29.99,SE,146,2.0,-999.0,86,0.00,,,0.00,WeatherSnoop3.0,2013-08-26 08:07:00,
2013-08-26 03:12:00,74.6,70.1,29.99,ESE,122,2.0,-999.0,86,0.00,,,0.00,WeatherSnoop3.0,2013-08-26 08:12:00,
2013-08-26 03:17:00,74.7,70.2,29.99,SE,139,1.0,-999.0,86,0.00,,,0.00,WeatherSnoop3.0,2013-08-26 08:17:00,
2013-08-26 03:22:00,74.8,70.3,29.99,SE,138,1.0,-999.0,86,0.00,,,0.00,WeatherSnoop3.0,2013-08-26 08:22:00,
2013-08-26 03:27:00,74.8,70.3,29.99,SSE,147,2.0,-999.0,86,0.00,,,0.00,WeatherSnoop3.0,2013-08-26 08:27:00,
2013-08-26 03:32:00,74.9,70.4,29.99,SSE,153,2.0,-999.0,86,0.00,,,0.00,WeatherSnoop3.0,2013-08-26 08:32:00,
2013-08-26 03:37:00,74.8,70.3,29.99,SE,139,2.0,-999.0,86,0.00,,,0.00,WeatherSnoop3.0,2013-08-26 08:37:00,
2013-08-26 03:42:00,74.6,70.1,29.99,SE,139,1.0,-999.0,86,0.00,,,0.00,WeatherSnoop3.0,2013-08-26 08:42:00,
2013-08-26 03:47:00,74.5,70.4,29.99,SSW,193,2.0,-999.0,87,0.00,,,0.00,WeatherSnoop3.0,2013-08-26 08:47:00,
2013-08-26 03:52:00,74.4,70.3,29.99,South,172,1.0,-999.0,87,0.00,,,0.00,WeatherSnoop3.0,2013-08-26 08:52:00,
2013-08-26 03:57:00,74.2,70.1,29.99,SE,146,2.0,-999.0,87,0.00,,,0.00,WeatherSnoop3.0,2013-08-26 08:57:00,
2013-08-26 04:02:00,74.2,70.4,29.99,SE,128,1.0,-999.0,88,0.00,,,0.00,WeatherSnoop3.0,2013-08-26 09:02:00,
2013-08-26 04:07:00,74.1,70.3,29.99,SE,126,0.0,-999.0,88,0.00,,,0.00,WeatherSnoop3.0,2013-08-26 09:07:00,
2013-08-26 04:12:00,74.0,70.2,29.99,SSE,149,1.0,-999.0,88,0.00,,,0.00,WeatherSnoop3.0,2013-08-26 09:12:00,
2013-08-26 04:17:00,73.9,70.1,29.99,SSE,148,1.0,-999.0,88,0.00,,,0.00,WeatherSnoop3.0,2013-08-26 09:17:00,
2013-08-26 04:22:00,73.8,70.0,29.99,SE,137,1.0,-999.0,88,0.00,,,0.00,WeatherSnoop3.0,2013-08-26 09:22:00,
2013-08-26 04:27:00,73.8,70.0,29.99,SE,146,2.0,-999.0,88,0.00,,,0.00,WeatherSnoop3.0,2013-08-26 09:27:00,
2013-08-26 04:32:00,73.9,70.1,29.99,South,178,1.0,-999.0,88,0.00,,,0.00,WeatherSnoop3.0,2013-08-26 09:32:00,
2013-08-26 04:37:00,73.9,70.1,29.98,SE,142,1.0,-999.0,88,0.00,,,0.00,WeatherSnoop3.0,2013-08-26 09:37:00,
2013-08-26 04:42:00,73.9,70.1,29.98,SSW,203,2.0,-999.0,88,0.00,,,0.00,WeatherSnoop3.0,2013-08-26 09:42:00,
2013-08-26 04:47:00,73.9,70.1,29.98,SE,139,1.0,-999.0,88,0.00,,,0.00,WeatherSnoop3.0,2013-08-26 09:47:00,
2013-08-26 04:52:00,73.9,70.1,29.98,SSE,168,2.0,-999.0,88,0.00,,,0.00,WeatherSnoop3.0,2013-08-26 09:52:00,
2013-08-26 04:57:00,73.9,70.1,29.98,SSE,156,2.0,-999.0,88,0.00,,,0.00,WeatherSnoop3.0,2013-08-26 09:57:00,
2013-08-26 05:02:00,73.8,70.0,29.98,SSW,202,2.0,-999.0,88,0.00,,,0.00,WeatherSnoop3.0,2013-08-26 10:02:00,
2013-08-26 05:07:00,73.7,69.9,29.98,SE,133,2.0,-999.0,88,0.00,,,0.00,WeatherSnoop3.0,2013-08-26 10:07:00,
2013-08-26 05:12:00,73.6,69.8,29.98,SSE,155,0.0,-999.0,88,0.00,,,0.00,WeatherSnoop3.0,2013-08-26 10:12:00,
2013-08-26 05:17:00,73.6,69.8,29.98,SSE,153,2.0,-999.0,88,0.00,,,0.00,WeatherSnoop3.0,2013-08-26 10:17:00,
2013-08-26 05:22:00,73.5,69.7,29.98,SE,136,1.0,-999.0,88,0.00,,,0.00,WeatherSnoop3.0,2013-08-26 10:22:00,
2013-08-26 05:27:00,73.4,69.6,29.98,SE,146,1.0,-999.0,88,0.00,,,0.00,WeatherSnoop3.0,2013-08-26 10:27:00,
2013-08-26 05:32:00,73.4,69.6,29.98,SSW,207,1.0,-999.0,88,0.00,,,0.00,WeatherSnoop3.0,2013-08-26 10:32:00,
2013-08-26 05:37:00,73.3,69.5,29.98,SE,137,2.0,-999.0,88,0.00,,,0.00,WeatherSnoop3.0,2013-08-26 10:37:00,
2013-08-26 05:42:00,73.3,69.9,29.98,SE,134,3.0,-999.0,89,0.00,,,0.00,WeatherSnoop3.0,2013-08-26 10:42:00,
2013-08-26 05:47:00,73.3,69.9,29.98,South,174,1.0,-999.0,89,0.00,,,0.00,WeatherSnoop3.0,2013-08-26 10:47:00,
2013-08-26 05:52:00,73.2,69.8,29.98,South,169,1.0,-999.0,89,0.00,,,0.00,WeatherSnoop3.0,2013-08-26 10:52:00,
2013-08-26 05:57:00,73.1,69.7,29.98,SSE,148,1.0,-999.0,89,0.00,,,0.00,WeatherSnoop3.0,2013-08-26 10:57:00,
2013-08-26 06:02:00,73.1,69.7,29.98,South,191,2.0,-999.0,89,0.00,,,0.00,WeatherSnoop3.0,2013-08-26 11:02:00,
2013-08-26 06:07:00,73.0,69.6,29.99,SSE,153,1.0,-999.0,89,0.00,,,0.00,WeatherSnoop3.0,2013-08-26 11:07:00,
2013-08-26 06:12:00,72.9,69.5,29.99,SSW,210,0.0,-999.0,89,0.00,,,0.00,WeatherSnoop3.0,2013-08-26 11:12:00,
2013-08-26 06:17:00,72.8,69.4,29.99,SE,131,1.0,-999.0,89,0.00,,,0.00,WeatherSnoop3.0,2013-08-26 11:17:00,
2013-08-26 06:22:00,72.8,69.4,29.99,South,169,0.0,-999.0,89,0.00,,,0.00,WeatherSnoop3.0,2013-08-26 11:22:00,
2013-08-26 06:27:00,72.7,69.3,29.99,SSW,203,0.0,-999.0,89,0.00,,,0.00,WeatherSnoop3.0,2013-08-26 11:27:00,
2013-08-26 06:32:00,72.6,69.5,29.99,SW,216,1.0,-999.0,90,0.00,,,0.00,WeatherSnoop3.0,2013-08-26 11:32:00,
2013-08-26 06:37:00,72.5,69.4,29.99,South,187,3.0,-999.0,90,0.00,,,0.00,WeatherSnoop3.0,2013-08-26 11:37:00,
2013-08-26 06:42:00,72.4,69.3,29.99,SSE,158,0.0,-999.0,90,0.00,,,0.00,WeatherSnoop3.0,2013-08-26 11:42:00,
2013-08-26 06:47:00,72.3,69.2,30.00,SE,128,1.0,-999.0,90,0.00,,,0.00,WeatherSnoop3.0,2013-08-26 11:47:00,
2013-08-26 06:52:00,72.2,69.1,29.99,SSW,207,0.0,-999.0,90,0.00,,,0.00,WeatherSnoop3.0,2013-08-26 11:52:00,
2013-08-26 06:57:00,72.1,69.0,30.00,SSE,164,0.0,-999.0,90,0.00,,,0.00,WeatherSnoop3.0,2013-08-26 11:57:00,
2013-08-26 07:02:00,72.0,69.2,30.00,SE,134,1.0,-999.0,91,0.00,,,0.00,WeatherSnoop3.0,2013-08-26 12:02:00,
2013-08-26 07:07:00,72.0,69.2,30.00,ESE,115,0.0,-999.0,91,0.00,,,0.00,WeatherSnoop3.0,2013-08-26 12:07:00,
2013-08-26 07:12:00,72.0,69.2,30.00,SSE,147,1.0,-999.0,91,0.00,,,0.00,WeatherSnoop3.0,2013-08-26 12:12:00,
2013-08-26 07:17:00,72.0,69.2,30.00,SW,220,0.0,-999.0,91,0.00,,,0.00,WeatherSnoop3.0,2013-08-26 12:17:00,
2013-08-26 07:22:00,72.1,69.3,30.00,SSW,210,1.0,-999.0,91,0.00,,,0.00,WeatherSnoop3.0,2013-08-26 12:22:00,
2013-08-26 07:27:00,72.2,69.4,30.00,SSE,164,0.0,-999.0,91,0.00,,,0.00,WeatherSnoop3.0,2013-08-26 12:27:00,
2013-08-26 07:32:00,72.3,69.2,30.00,SE,138,0.0,-999.0,90,0.00,,,0.00,WeatherSnoop3.0,2013-08-26 12:32:00,
2013-08-26 07:37:00,72.6,69.5,30.00,SW,231,5.0,-999.0,90,0.00,,,0.00,WeatherSnoop3.0,2013-08-26 12:37:00,
2013-08-26 07:42:00,72.8,69.4,30.00,South,185,0.0,-999.0,89,0.00,,,0.00,WeatherSnoop3.0,2013-08-26 12:42:00,
2013-08-26 07:47:00,73.0,69.6,30.00,SSW,212,0.0,-999.0,89,0.00,,,0.00,WeatherSnoop3.0,2013-08-26 12:47:00,
2013-08-26 07:52:00,73.2,69.8,30.00,SE,133,0.0,-999.0,89,0.00,,,0.00,WeatherSnoop3.0,2013-08-26 12:52:00,
2013-08-26 07:57:00,73.3,69.5,30.00,SE,142,2.0,-999.0,88,0.00,,,0.00,WeatherSnoop3.0,2013-08-26 12:57:00,
2013-08-26 08:02:00,73.6,69.8,30.01,SW,232,2.0,-999.0,88,0.00,,,0.00,WeatherSnoop3.0,2013-08-26 13:02:00,
2013-08-26 08:07:00,73.9,69.8,30.01,SSE,168,2.0,-999.0,87,0.00,,,0.00,WeatherSnoop3.0,2013-08-26 13:07:00,
2013-08-26 08:12:00,74.1,70.0,30.01,WSW,242,3.0,-999.0,87,0.00,,,0.00,WeatherSnoop3.0,2013-08-26 13:12:00,
2013-08-26 08:17:00,74.3,69.8,30.01,SW,229,5.0,-999.0,86,0.00,,,0.00,WeatherSnoop3.0,2013-08-26 13:17:00,
2013-08-26 08:22:00,74.6,70.1,30.01,SW,225,4.0,-999.0,86,0.00,,,0.00,WeatherSnoop3.0,2013-08-26 13:22:00,
2013-08-26 08:27:00,74.9,70.1,30.01,SE,139,0.0,-999.0,85,0.00,,,0.00,WeatherSnoop3.0,2013-08-26 13:27:00,
2013-08-26 08:32:00,75.1,70.3,30.01,SSE,149,3.0,-999.0,85,0.00,,,0.00,WeatherSnoop3.0,2013-08-26 13:32:00,
2013-08-26 08:37:00,75.4,70.2,30.01,SE,142,1.0,-999.0,84,0.00,,,0.00,WeatherSnoop3.0,2013-08-26 13:37:00,
2013-08-26 08:42:00,75.7,70.5,30.01,South,185,1.0,-999.0,84,0.00,,,0.00,WeatherSnoop3.0,2013-08-26 13:42:00,
2013-08-26 08:47:00,76.2,70.6,30.01,SSE,150,2.0,-999.0,83,0.00,,,0.00,WeatherSnoop3.0,2013-08-26 13:47:00,
2013-08-26 08:52:00,76.6,70.3,30.01,SSW,203,3.0,-999.0,81,0.00,,,0.00,WeatherSnoop3.0,2013-08-26 13:52:00,
2013-08-26 08:57:00,77.0,70.3,30.01,SSE,149,4.0,-999.0,80,0.00,,,0.00,WeatherSnoop3.0,2013-08-26 13:57:00,
2013-08-26 09:02:00,77.5,70.5,30.01,South,173,3.0,-999.0,79,0.00,,,0.00,WeatherSnoop3.0,2013-08-26 14:02:00,
2013-08-26 09:07:00,77.9,70.1,30.01,ESE,115,4.0,-999.0,77,0.00,,,0.00,WeatherSnoop3.0,2013-08-26 14:07:00,
2013-08-26 09:12:00,78.5,70.7,30.01,SE,128,4.0,-999.0,77,0.00,,,0.00,WeatherSnoop3.0,2013-08-26 14:12:00,
2013-08-26 09:17:00,78.8,70.2,30.01,South,186,1.0,-999.0,75,0.00,,,0.00,WeatherSnoop3.0,2013-08-26 14:17:00,
2013-08-26 09:22:00,79.3,70.3,30.01,SW,214,4.0,-999.0,74,0.00,,,0.00,WeatherSnoop3.0,2013-08-26 14:22:00,
2013-08-26 09:27:00,79.7,70.3,30.01,WSW,250,8.0,-999.0,73,0.00,,,0.00,WeatherSnoop3.0,2013-08-26 14:27:00,
2013-08-26 09:32:00,80.0,70.5,30.00,SW,231,3.0,-999.0,73,0.00,,,0.00,WeatherSnoop3.0,2013-08-26 14:32:00,
2013-08-26 09:37:00,80.3,70.4,30.01,SSE,163,2.0,-999.0,72,0.00,,,0.00,WeatherSnoop3.0,2013-08-26 14:37:00,
2013-08-26 09:42:00,80.8,70.5,30.01,SSE,165,2.0,-999.0,71,0.00,,,0.00,WeatherSnoop3.0,2013-08-26 14:42:00,
2013-08-26 09:47:00,81.2,70.9,30.01,ESE,119,7.0,-999.0,71,0.00,,,0.00,WeatherSnoop3.0,2013-08-26 14:47:00,
2013-08-26 09:52:00,81.7,70.9,30.00,ESE,119,3.0,-999.0,70,0.00,,,0.00,WeatherSnoop3.0,2013-08-26 14:52:00,
2013-08-26 09:57:00,82.0,70.8,30.00,SSW,204,4.0,-999.0,69,0.00,,,0.00,WeatherSnoop3.0,2013-08-26 14:57:00,
2013-08-26 10:02:00,82.5,71.3,30.00,SW,218,5.0,-999.0,69,0.00,,,0.00,WeatherSnoop3.0,2013-08-26 15:02:00,
2013-08-26 10:07:00,83.0,70.4,30.00,SSW,212,9.0,-999.0,66,0.00,,,0.00,WeatherSnoop3.0,2013-08-26 15:07:00,
2013-08-26 10:12:00,83.6,71.5,30.00,SE,143,4.0,-999.0,67,0.00,,,0.00,WeatherSnoop3.0,2013-08-26 15:12:00,
2013-08-26 10:17:00,84.2,71.1,30.00,SSE,162,3.0,-999.0,65,0.00,,,0.00,WeatherSnoop3.0,2013-08-26 15:17:00,
2013-08-26 10:22:00,84.3,70.3,30.00,SSW,210,6.0,-999.0,63,0.00,,,0.00,WeatherSnoop3.0,2013-08-26 15:22:00,
2013-08-26 10:27:00,84.6,70.6,30.00,SW,218,3.0,-999.0,63,0.00,,,0.00,WeatherSnoop3.0,2013-08-26 15:27:00,
2013-08-26 10:32:00,85.2,70.2,30.00,WSW,253,7.0,-999.0,61,0.00,,,0.00,WeatherSnoop3.0,2013-08-26 15:32:00,
2013-08-26 10:37:00,85.7,70.7,30.00,SW,221,7.0,-999.0,61,0.00,,,0.00,WeatherSnoop3.0,2013-08-26 15:37:00,
2013-08-26 10:42:00,86.2,70.2,30.00,WSW,250,5.0,-999.0,59,0.00,,,0.00,WeatherSnoop3.0,2013-08-26 15:42:00,
2013-08-26 10:47:00,86.7,70.6,30.00,SSW,212,5.0,-999.0,59,0.00,,,0.00,WeatherSnoop3.0,2013-08-26 15:47:00,
2013-08-26 10:52:00,86.9,70.3,30.00,WSW,245,8.0,-999.0,58,0.00,,,0.00,WeatherSnoop3.0,2013-08-26 15:52:00,
2013-08-26 10:57:00,87.1,70.5,30.00,SW,219,5.0,-999.0,58,0.00,,,0.00,WeatherSnoop3.0,2013-08-26 15:57:00,
2013-08-26 11:02:00,87.5,69.3,30.00,SSW,212,9.0,-999.0,55,0.00,,,0.00,WeatherSnoop3.0,2013-08-26 16:02:00,
2013-08-26 11:07:00,87.6,69.4,30.00,WSW,242,8.0,-999.0,55,0.00,,,0.00,WeatherSnoop3.0,2013-08-26 16:07:00,
2013-08-26 11:12:00,87.8,69.0,30.00,SW,233,6.0,-999.0,54,0.00,,,0.00,WeatherSnoop3.0,2013-08-26 16:12:00,
2013-08-26 11:17:00,88.3,69.5,30.00,SW,218,5.0,-999.0,54,0.00,,,0.00,WeatherSnoop3.0,2013-08-26 16:17:00,
2013-08-26 11:22:00,88.3,69.5,30.00,South,171,4.0,-999.0,54,0.00,,,0.00,WeatherSnoop3.0,2013-08-26 16:22:00,
2013-08-26 11:27:00,88.6,70.9,30.00,SW,215,4.0,-999.0,56,0.00,,,0.00,WeatherSnoop3.0,2013-08-26 16:27:00,
2013-08-26 11:32:00,89.0,69.6,30.00,SW,226,3.0,-999.0,53,0.00,,,0.00,WeatherSnoop3.0,2013-08-26 16:32:00,
2013-08-26 11:37:00,89.3,69.3,30.00,WSW,239,5.0,-999.0,52,0.00,,,0.00,WeatherSnoop3.0,2013-08-26 16:37:00,
2013-08-26 11:42:00,89.6,69.6,30.00,WSW,238,5.0,-999.0,52,0.00,,,0.00,WeatherSnoop3.0,2013-08-26 16:42:00,
2013-08-26 11:47:00,89.8,69.2,30.00,South,170,5.0,-999.0,51,0.00,,,0.00,WeatherSnoop3.0,2013-08-26 16:47:00,
2013-08-26 11:52:00,89.9,69.3,29.99,SSW,207,5.0,-999.0,51,0.00,,,0.00,WeatherSnoop3.0,2013-08-26 16:52:00,
2013-08-26 11:57:00,90.3,70.2,29.99,SW,233,12.0,-999.0,52,0.00,,,0.00,WeatherSnoop3.0,2013-08-26 16:57:00,
2013-08-26 12:02:00,90.9,70.8,29.99,SW,225,5.0,-999.0,52,0.00,,,0.00,WeatherSnoop3.0,2013-08-26 17:02:00,
2013-08-26 12:07:00,91.0,70.3,29.99,SW,218,2.0,-999.0,51,0.00,,,0.00,WeatherSnoop3.0,2013-08-26 17:07:00,
2013-08-26 12:12:00,91.0,69.1,29.98,WSW,250,2.0,-999.0,49,0.00,,,0.00,WeatherSnoop3.0,2013-08-26 17:12:00,
2013-08-26 12:17:00,90.9,71.4,29.98,SE,126,4.0,-999.0,53,0.00,,,0.00,WeatherSnoop3.0,2013-08-26 17:17:00,
2013-08-26 12:22:00,91.0,70.3,29.98,SE,140,3.0,-999.0,51,0.00,,,0.00,WeatherSnoop3.0,2013-08-26 17:22:00,
2013-08-26 12:27:00,90.9,70.8,29.98,ESE,109,4.0,-999.0,52,0.00,,,0.00,WeatherSnoop3.0,2013-08-26 17:27:00,
2013-08-26 12:32:00,90.9,70.2,29.98,SW,218,5.0,-999.0,51,0.00,,,0.00,WeatherSnoop3.0,2013-08-26 17:32:00,
2013-08-26 12:37:00,91.1,70.4,29.98,SSW,194,4.0,-999.0,51,0.00,,,0.00,WeatherSnoop3.0,2013-08-26 17:37:00,
2013-08-26 12:42:00,91.2,70.5,29.98,SSE,155,4.0,-999.0,51,0.00,,,0.00,WeatherSnoop3.0,2013-08-26 17:42:00,
2013-08-26 12:47:00,91.3,70.6,29.98,SE,143,3.0,-999.0,51,0.00,,,0.00,WeatherSnoop3.0,2013-08-26 17:47:00,
2013-08-26 12:52:00,91.4,70.1,29.98,South,188,4.0,-999.0,50,0.00,,,0.00,WeatherSnoop3.0,2013-08-26 17:52:00,
2013-08-26 12:57:00,91.5,70.8,29.98,SSW,211,3.0,-999.0,51,0.00,,,0.00,WeatherSnoop3.0,2013-08-26 17:57:00,
2013-08-26 13:02:00,91.6,70.3,29.97,SSE,151,4.0,-999.0,50,0.00,,,0.00,WeatherSnoop3.0,2013-08-26 18:02:00,
2013-08-26 13:07:00,91.9,70.0,29.97,WSW,242,5.0,-999.0,49,0.00,,,0.00,WeatherSnoop3.0,2013-08-26 18:07:00,
2013-08-26 13:12:00,92.2,69.6,29.97,SW,225,6.0,-999.0,48,0.00,,,0.00,WeatherSnoop3.0,2013-08-26 18:12:00,
2013-08-26 13:17:00,92.4,70.4,29.97,SE,131,6.0,-999.0,49,0.00,,,0.00,WeatherSnoop3.0,2013-08-26 18:17:00,
2013-08-26 13:22:00,92.6,69.4,29.96,SSE,148,6.0,-999.0,47,0.00,,,0.00,WeatherSnoop3.0,2013-08-26 18:22:00,
2013-08-26 13:27:00,92.6,70.6,29.96,SE,140,2.0,-999.0,49,0.00,,,0.00,WeatherSnoop3.0,2013-08-26 18:27:00,
2013-08-26 13:32:00,92.5,69.9,29.96,SSE,150,3.0,-999.0,48,0.00,,,0.00,WeatherSnoop3.0,2013-08-26 18:32:00,
2013-08-26 13:37:00,92.4,70.4,29.95,SW,218,5.0,-999.0,49,0.00,,,0.00,WeatherSnoop3.0,2013-08-26 18:37:00,
2013-08-26 13:42:00,92.8,70.8,29.95,South,181,4.0,-999.0,49,0.00,,,0.00,WeatherSnoop3.0,2013-08-26 18:42:00,
2013-08-26 13:47:00,93.0,69.1,29.95,ESE,119,3.0,-999.0,46,0.00,,,0.00,WeatherSnoop3.0,2013-08-26 18:47:00,
2013-08-26 13:52:00,92.9,69.7,29.95,West,266,5.0,-999.0,47,0.00,,,0.00,WeatherSnoop3.0,2013-08-26 18:52:00,
2013-08-26 13:57:00,93.1,68.6,29.95,ESE,120,6.0,-999.0,45,0.00,,,0.00,WeatherSnoop3.0,2013-08-26 18:57:00,
2013-08-26 14:02:00,92.9,69.7,29.95,SSW,208,6.0,-999.0,47,0.00,,,0.00,WeatherSnoop3.0,2013-08-26 19:02:00,
2013-08-26 14:07:00,92.9,69.0,29.94,ESE,115,6.0,-999.0,46,0.00,,,0.00,WeatherSnoop3.0,2013-08-26 19:07:00,
2013-08-26 14:12:00,92.7,70.1,29.94,SE,129,8.0,-999.0,48,0.00,,,0.00,WeatherSnoop3.0,2013-08-26 19:12:00,
2013-08-26 14:17:00,92.4,68.6,29.94,SE,136,4.0,-999.0,46,0.00,,,0.00,WeatherSnoop3.0,2013-08-26 19:17:00,
2013-08-26 14:22:00,92.7,69.5,29.94,SE,136,6.0,-999.0,47,0.00,,,0.00,WeatherSnoop3.0,2013-08-26 19:22:00,
2013-08-26 14:27:00,92.8,68.9,29.94,ESE,111,9.0,-999.0,46,0.00,,,0.00,WeatherSnoop3.0,2013-08-26 19:27:00,
2013-08-26 14:32:00,92.5,69.3,29.94,SSW,197,6.0,-999.0,47,0.00,,,0.00,WeatherSnoop3.0,2013-08-26 19:32:00,
2013-08-26 14:37:00,92.9,69.7,29.94,SSW,204,5.0,-999.0,47,0.00,,,0.00,WeatherSnoop3.0,2013-08-26 19:37:00,
2013-08-26 14:42:00,93.2,69.9,29.94,South,179,4.0,-999.0,47,0.00,,,0.00,WeatherSnoop3.0,2013-08-26 19:42:00,
2013-08-26 14:47:00,92.9,69.0,29.94,SW,235,6.0,-999.0,46,0.00,,,0.00,WeatherSnoop3.0,2013-08-26 19:47:00,
2013-08-26 14:52:00,93.1,67.9,29.94,SSW,207,8.0,-999.0,44,0.00,,,0.00,WeatherSnoop3.0,2013-08-26 19:52:00,
2013-08-26 14:57:00,93.4,70.7,29.93,WSW,252,5.0,-999.0,48,0.00,,,0.00,WeatherSnoop3.0,2013-08-26 19:57:00,
2013-08-26 15:02:00,93.7,68.4,29.93,SW,229,3.0,-999.0,44,0.00,,,0.00,WeatherSnoop3.0,2013-08-26 20:02:00,
2013-08-26 15:07:00,94.0,68.7,29.93,West,264,4.0,-999.0,44,0.00,,,0.00,WeatherSnoop3.0,2013-08-26 20:07:00,
2013-08-26 15:12:00,93.9,68.6,29.93,South,176,2.0,-999.0,44,0.00,,,0.00,WeatherSnoop3.0,2013-08-26 20:12:00,
2013-08-26 15:17:00,93.8,68.5,29.93,SE,129,4.0,-999.0,44,0.00,,,0.00,WeatherSnoop3.0,2013-08-26 20:17:00,
2013-08-26 15:22:00,93.5,68.3,29.92,SSE,165,6.0,-999.0,44,0.00,,,0.00,WeatherSnoop3.0,2013-08-26 20:22:00,
2013-08-26 15:27:00,93.7,68.4,29.92,West,278,5.0,-999.0,44,0.00,,,0.00,WeatherSnoop3.0,2013-08-26 20:27:00,
2013-08-26 15:32:00,93.8,68.5,29.92,SE,134,4.0,-999.0,44,0.00,,,0.00,WeatherSnoop3.0,2013-08-26 20:32:00,
2013-08-26 15:37:00,93.8,67.9,29.92,WSW,246,4.0,-999.0,43,0.00,,,0.00,WeatherSnoop3.0,2013-08-26 20:37:00,
2013-08-26 15:42:00,93.8,67.2,29.92,SE,132,6.0,-999.0,42,0.00,,,0.00,WeatherSnoop3.0,2013-08-26 20:42:00,
2013-08-26 15:47:00,93.5,68.3,29.92,SSE,160,6.0,-999.0,44,0.00,,,0.00,WeatherSnoop3.0,2013-08-26 20:47:00,
2013-08-26 15:52:00,93.6,68.4,29.92,SW,235,7.0,-999.0,44,0.00,,,0.00,WeatherSnoop3.0,2013-08-26 20:52:00,
2013-08-26 15:57:00,93.9,69.3,29.91,SE,145,9.0,-999.0,45,0.00,,,0.00,WeatherSnoop3.0,2013-08-26 20:57:00,
2013-08-26 16:02:00,93.4,68.8,29.91,SE,140,3.0,-999.0,45,0.00,,,0.00,WeatherSnoop3.0,2013-08-26 21:02:00,
2013-08-26 16:07:00,93.9,68.6,29.91,SSE,158,4.0,-999.0,44,0.00,,,0.00,WeatherSnoop3.0,2013-08-26 21:07:00,
2013-08-26 16:12:00,93.7,68.4,29.91,SE,143,6.0,-999.0,44,0.00,,,0.00,WeatherSnoop3.0,2013-08-26 21:12:00,
2013-08-26 16:17:00,93.3,68.1,29.91,SW,214,4.0,-999.0,44,0.00,,,0.00,WeatherSnoop3.0,2013-08-26 21:17:00,
2013-08-26 16:22:00,93.6,67.7,29.91,SW,224,11.0,-999.0,43,0.00,,,0.00,WeatherSnoop3.0,2013-08-26 21:22:00,
2013-08-26 16:27:00,93.6,67.0,29.91,SW,221,2.0,-999.0,42,0.00,,,0.00,WeatherSnoop3.0,2013-08-26 21:27:00,
2013-08-26 16:32:00,93.8,67.9,29.91,SW,214,6.0,-999.0,43,0.00,,,0.00,WeatherSnoop3.0,2013-08-26 21:32:00,
2013-08-26 16:37:00,93.3,68.1,29.91,SE,136,2.0,-999.0,44,0.00,,,0.00,WeatherSnoop3.0,2013-08-26 21:37:00,
2013-08-26 16:42:00,93.4,68.8,29.91,SE,140,2.0,-999.0,45,0.00,,,0.00,WeatherSnoop3.0,2013-08-26 21:42:00,
2013-08-26 16:47:00,93.4,68.8,29.90,SW,235,2.0,-999.0,45,0.00,,,0.00,WeatherSnoop3.0,2013-08-26 21:47:00,
2013-08-26 16:52:00,93.2,68.7,29.91,ESE,122,5.0,-999.0,45,0.00,,,0.00,WeatherSnoop3.0,2013-08-26 21:52:00,
2013-08-26 16:57:00,93.2,69.3,29.90,ESE,107,3.0,-999.0,46,0.00,,,0.00,WeatherSnoop3.0,2013-08-26 21:57:00,
2013-08-26 17:02:00,93.2,68.7,29.90,SE,131,5.0,-999.0,45,0.00,,,0.00,WeatherSnoop3.0,2013-08-26 22:02:00,
2013-08-26 17:07:00,93.2,67.3,29.90,ESE,115,4.0,-999.0,43,0.00,,,0.00,WeatherSnoop3.0,2013-08-26 22:07:00,
2013-08-26 17:12:00,93.3,67.4,29.90,South,179,5.0,-999.0,43,0.00,,,0.00,WeatherSnoop3.0,2013-08-26 22:12:00,
2013-08-26 17:17:00,93.0,67.8,29.90,SSE,148,7.0,-999.0,44,0.00,,,0.00,WeatherSnoop3.0,2013-08-26 22:17:00,
2013-08-26 17:22:00,93.1,67.9,29.90,South,180,3.0,-999.0,44,0.00,,,0.00,WeatherSnoop3.0,2013-08-26 22:22:00,
2013-08-26 17:27:00,92.9,69.0,29.90,ESE,120,3.0,-999.0,46,0.00,,,0.00,WeatherSnoop3.0,2013-08-26 22:27:00,
2013-08-26 17:32:00,93.1,67.9,29.90,SSW,200,4.0,-999.0,44,0.00,,,0.00,WeatherSnoop3.0,2013-08-26 22:32:00,
2013-08-26 17:37:00,92.7,68.2,29.90,SSW,206,4.0,-999.0,45,0.00,,,0.00,WeatherSnoop3.0,2013-08-26 22:37:00,
2013-08-26 17:42:00,92.7,68.8,29.90,SSW,201,1.0,-999.0,46,0.00,,,0.00,WeatherSnoop3.0,2013-08-26 22:42:00,
2013-08-26 17:47:00,92.7,68.2,29.89,ESE,104,10.0,-999.0,45,0.00,,,0.00,WeatherSnoop3.0,2013-08-26 22:47:00,
2013-08-26 17:52:00,92.0,68.2,29.90,SE,139,5.0,-999.0,46,0.00,,,0.00,WeatherSnoop3.0,2013-08-26 22:52:00,
2013-08-26 17:57:00,91.9,68.7,29.90,SE,134,3.0,-999.0,47,0.00,,,0.00,WeatherSnoop3.0,2013-08-26 22:57:00,
2013-08-26 18:02:00,91.8,69.3,29.90,SSE,150,4.0,-999.0,48,0.00,,,0.00,WeatherSnoop3.0,2013-08-26 23:02:00,
2013-08-26 18:07:00,91.7,68.6,29.90,SE,128,2.0,-999.0,47,0.00,,,0.00,WeatherSnoop3.0,2013-08-26 23:07:00,
2013-08-26 18:12:00,91.5,68.4,29.90,ESE,116,4.0,-999.0,47,0.00,,,0.00,WeatherSnoop3.0,2013-08-26 23:12:00,
2013-08-26 18:17:00,91.6,69.1,29.90,SSE,166,2.0,-999.0,48,0.00,,,0.00,WeatherSnoop3.0,2013-08-26 23:17:00,
2013-08-26 18:22:00,91.5,68.4,29.90,South,175,2.0,-999.0,47,0.00,,,0.00,WeatherSnoop3.0,2013-08-26 23:22:00,
2013-08-26 18:27:00,91.4,67.7,29.89,SE,139,6.0,-999.0,46,0.00,,,0.00,WeatherSnoop3.0,2013-08-26 23:27:00,
2013-08-26 18:32:00,91.2,68.1,29.89,SSE,160,1.0,-999.0,47,0.00,,,0.00,WeatherSnoop3.0,2013-08-26 23:32:00,
2013-08-26 18:37:00,90.9,68.5,29.89,South,170,3.0,-999.0,48,0.00,,,0.00,WeatherSnoop3.0,2013-08-26 23:37:00,
2013-08-26 18:42:00,90.8,68.4,29.89,ESE,121,6.0,-999.0,48,0.00,,,0.00,WeatherSnoop3.0,2013-08-26 23:42:00,
2013-08-26 18:47:00,90.5,68.1,29.89,South,181,2.0,-999.0,48,0.00,,,0.00,WeatherSnoop3.0,2013-08-26 23:47:00,
2013-08-26 18:52:00,90.1,68.3,29.89,SE,129,3.0,-999.0,49,0.00,,,0.00,WeatherSnoop3.0,2013-08-26 23:52:00,
2013-08-26 18:57:00,89.8,68.1,29.89,SE,125,2.0,-999.0,49,0.00,,,0.00,WeatherSnoop3.0,2013-08-26 23:57:00,
2013-08-26 19:02:00,89.4,68.3,29.89,SSE,153,3.0,-999.0,50,0.00,,,0.00,WeatherSnoop3.0,2013-08-27 00:02:00,
2013-08-26 19:07:00,89.0,67.9,29.89,South,191,4.0,-999.0,50,0.00,,,0.00,WeatherSnoop3.0,2013-08-27 00:07:00,
2013-08-26 19:12:00,88.6,68.1,29.89,SE,129,4.0,-999.0,51,0.00,,,0.00,WeatherSnoop3.0,2013-08-27 00:12:00,
2013-08-26 19:17:00,88.2,67.8,29.89,SE,143,4.0,-999.0,51,0.00,,,0.00,WeatherSnoop3.0,2013-08-27 00:17:00,
2013-08-26 19:22:00,87.9,68.0,29.89,ESE,113,8.0,-999.0,52,0.00,,,0.00,WeatherSnoop3.0,2013-08-27 00:22:00,
2013-08-26 19:27:00,87.6,67.8,29.89,SSE,160,4.0,-999.0,52,0.00,,,0.00,WeatherSnoop3.0,2013-08-27 00:27:00,
2013-08-26 19:32:00,87.4,67.6,29.90,SE,125,6.0,-999.0,52,0.00,,,0.00,WeatherSnoop3.0,2013-08-27 00:32:00,
2013-08-26 19:37:00,87.0,67.8,29.90,SE,142,5.0,-999.0,53,0.00,,,0.00,WeatherSnoop3.0,2013-08-27 00:37:00,
2013-08-26 19:42:00,86.7,67.5,29.90,SSE,155,1.0,-999.0,53,0.00,,,0.00,WeatherSnoop3.0,2013-08-27 00:42:00,
2013-08-26 19:47:00,86.4,67.8,29.90,SE,134,2.0,-999.0,54,0.00,,,0.00,WeatherSnoop3.0,2013-08-27 00:47:00,
2013-08-26 19:52:00,86.1,67.5,29.90,SSW,204,3.0,-999.0,54,0.00,,,0.00,WeatherSnoop3.0,2013-08-27 00:52:00,
2013-08-26 19:57:00,85.8,67.7,29.90,SE,132,2.0,-999.0,55,0.00,,,0.00,WeatherSnoop3.0,2013-08-27 00:57:00,
2013-08-26 20:02:00,85.4,67.9,29.90,SE,137,2.0,-999.0,56,0.00,,,0.00,WeatherSnoop3.0,2013-08-27 01:02:00,
2013-08-26 20:07:00,85.1,67.6,29.90,SE,134,2.0,-999.0,56,0.00,,,0.00,WeatherSnoop3.0,2013-08-27 01:07:00,
2013-08-26 20:12:00,84.8,67.8,29.90,SE,142,2.0,-999.0,57,0.00,,,0.00,WeatherSnoop3.0,2013-08-27 01:12:00,
2013-08-26 20:17:00,84.3,67.4,29.91,SE,142,3.0,-999.0,57,0.00,,,0.00,WeatherSnoop3.0,2013-08-27 01:17:00,
2013-08-26 20:22:00,84.0,67.6,29.91,SE,137,3.0,-999.0,58,0.00,,,0.00,WeatherSnoop3.0,2013-08-27 01:22:00,
2013-08-26 20:27:00,83.7,67.8,29.91,SSE,166,2.0,-999.0,59,0.00,,,0.00,WeatherSnoop3.0,2013-08-27 01:27:00,
2013-08-26 20:32:00,83.5,67.6,29.91,South,171,1.0,-999.0,59,0.00,,,0.00,WeatherSnoop3.0,2013-08-27 01:32:00,
2013-08-26 20:37:00,83.2,67.4,29.91,ESE,117,1.0,-999.0,59,0.00,,,0.00,WeatherSnoop3.0,2013-08-27 01:37:00,
2013-08-26 20:42:00,82.9,67.6,29.91,ESE,113,3.0,-999.0,60,0.00,,,0.00,WeatherSnoop3.0,2013-08-27 01:42:00,
2013-08-26 20:47:00,82.7,67.4,29.91,SE,139,2.0,-999.0,60,0.00,,,0.00,WeatherSnoop3.0,2013-08-27 01:47:00,
2013-08-26 20:52:00,82.4,67.6,29.91,ESE,113,2.0,-999.0,61,0.00,,,0.00,WeatherSnoop3.0,2013-08-27 01:52:00,
2013-08-26 20:57:00,82.2,67.4,29.91,SE,145,3.0,-999.0,61,0.00,,,0.00,WeatherSnoop3.0,2013-08-27 01:57:00,
2013-08-26 21:02:00,82.1,67.3,29.91,SSE,149,4.0,-999.0,61,0.00,,,0.00,WeatherSnoop3.0,2013-08-27 02:02:00,
2013-08-26 21:07:00,82.0,67.7,29.91,SE,140,2.0,-999.0,62,0.00,,,0.00,WeatherSnoop3.0,2013-08-27 02:07:00,
2013-08-26 21:12:00,81.8,67.5,29.91,SE,139,2.0,-999.0,62,0.00,,,0.00,WeatherSnoop3.0,2013-08-27 02:12:00,
2013-08-26 21:17:00,81.6,67.3,29.92,SSE,168,1.0,-999.0,62,0.00,,,0.00,WeatherSnoop3.0,2013-08-27 02:17:00,
2013-08-26 21:22:00,81.4,67.6,29.92,SE,146,0.0,-999.0,63,0.00,,,0.00,WeatherSnoop3.0,2013-08-27 02:22:00,
2013-08-26 21:27:00,81.3,67.5,29.92,SSE,149,2.0,-999.0,63,0.00,,,0.00,WeatherSnoop3.0,2013-08-27 02:27:00,
2013-08-26 21:32:00,81.1,67.3,29.92,SW,219,1.0,-999.0,63,0.00,,,0.00,WeatherSnoop3.0,2013-08-27 02:32:00,
2013-08-26 21:37:00,80.9,67.6,29.92,SE,129,3.0,-999.0,64,0.00,,,0.00,WeatherSnoop3.0,2013-08-27 02:37:00,
2013-08-26 21:42:00,80.7,67.4,29.92,SSE,153,2.0,-999.0,64,0.00,,,0.00,WeatherSnoop3.0,2013-08-27 02:42:00,
2013-08-26 21:47:00,80.6,67.7,29.92,SE,139,1.0,-999.0,65,0.00,,,0.00,WeatherSnoop3.0,2013-08-27 02:47:00,
2013-08-26 21:52:00,80.4,67.5,29.92,ESE,115,3.0,-999.0,65,0.00,,,0.00,WeatherSnoop3.0,2013-08-27 02:52:00,
2013-08-26 21:57:00,80.2,67.8,29.92,SE,137,2.0,-999.0,66,0.00,,,0.00,WeatherSnoop3.0,2013-08-27 02:57:00,
2013-08-26 22:02:00,80.0,67.6,29.92,SE,146,2.0,-999.0,66,0.00,,,0.00,WeatherSnoop3.0,2013-08-27 03:02:00,
2013-08-26 22:07:00,79.8,67.8,29.92,SSE,148,2.0,-999.0,67,0.00,,,0.00,WeatherSnoop3.0,2013-08-27 03:07:00,
2013-08-26 22:12:00,79.6,67.7,29.92,SSE,155,3.0,-999.0,67,0.00,,,0.00,WeatherSnoop3.0,2013-08-27 03:12:00,
2013-08-26 22:17:00,79.5,68.0,29.92,SE,145,2.0,-999.0,68,0.00,,,0.00,WeatherSnoop3.0,2013-08-27 03:17:00,
2013-08-26 22:22:00,79.4,67.9,29.92,SE,142,1.0,-999.0,68,0.00,,,0.00,WeatherSnoop3.0,2013-08-27 03:22:00,
2013-08-26 22:27:00,79.2,68.1,29.92,SSE,149,4.0,-999.0,69,0.00,,,0.00,WeatherSnoop3.0,2013-08-27 03:27:00,
2013-08-26 22:32:00,79.0,67.9,29.92,SSE,158,2.0,-999.0,69,0.00,,,0.00,WeatherSnoop3.0,2013-08-27 03:32:00,
2013-08-26 22:37:00,78.9,68.3,29.92,SE,143,1.0,-999.0,70,0.00,,,0.00,WeatherSnoop3.0,2013-08-27 03:37:00,
2013-08-26 22:42:00,78.8,68.2,29.92,SE,146,1.0,-999.0,70,0.00,,,0.00,WeatherSnoop3.0,2013-08-27 03:42:00,
2013-08-26 22:47:00,78.6,68.0,29.92,South,176,2.0,-999.0,70,0.00,,,0.00,WeatherSnoop3.0,2013-08-27 03:47:00,
2013-08-26 22:52:00,78.5,68.3,29.92,South,177,2.0,-999.0,71,0.00,,,0.00,WeatherSnoop3.0,2013-08-27 03:52:00,
2013-08-26 22:57:00,78.3,68.1,29.92,ESE,119,4.0,-999.0,71,0.00,,,0.00,WeatherSnoop3.0,2013-08-27 03:57:00,
2013-08-26 23:02:00,78.3,68.1,29.92,ESE,122,3.0,-999.0,71,0.00,,,0.00,WeatherSnoop3.0,2013-08-27 04:02:00,
2013-08-26 23:07:00,78.3,68.1,29.92,SSE,150,2.0,-999.0,71,0.00,,,0.00,WeatherSnoop3.0,2013-08-27 04:07:00,
2013-08-26 23:12:00,78.3,68.1,29.92,ESE,110,1.0,-999.0,71,0.00,,,0.00,WeatherSnoop3.0,2013-08-27 04:12:00,
2013-08-26 23:17:00,78.2,68.0,29.92,SE,128,1.0,-999.0,71,0.00,,,0.00,WeatherSnoop3.0,2013-08-27 04:17:00,
2013-08-26 23:22:00,78.1,68.3,29.92,SSE,155,1.0,-999.0,72,0.00,,,0.00,WeatherSnoop3.0,2013-08-27 04:22:00,
2013-08-26 23:27:00,78.0,68.2,29.92,SSW,202,2.0,-999.0,72,0.00,,,0.00,WeatherSnoop3.0,2013-08-27 04:27:00,
2013-08-26 23:32:00,77.9,68.1,29.92,SSW,203,3.0,-999.0,72,0.00,,,0.00,WeatherSnoop3.0,2013-08-27 04:32:00,
2013-08-26 23:37:00,77.9,68.1,29.92,ESE,119,3.0,-999.0,72,0.00,,,0.00,WeatherSnoop3.0,2013-08-27 04:37:00,
2013-08-26 23:42:00,77.8,68.4,29.92,ESE,108,2.0,-999.0,73,0.00,,,0.00,WeatherSnoop3.0,2013-08-27 04:42:00,
2013-08-26 23:47:00,77.7,68.3,29.92,SE,131,1.0,-999.0,73,0.00,,,0.00,WeatherSnoop3.0,2013-08-27 04:47:00,
2013-08-26 23:52:00,77.6,68.2,29.92,SE,133,3.0,-999.0,73,0.00,,,0.00,WeatherSnoop3.0,2013-08-27 04:52:00,
2013-08-26 23:57:00,77.5,68.1,29.92,SE,144,1.0,-999.0,73,0.00,,,0.00,WeatherSnoop3.0,2013-08-27 04:57:00,